User: anonymous   Login
Location: Unspecified
(0.0000°N, 0.0000°E)
Time: 02:50:40
(UTC+00:00)
Language:

NADEZHDA 7 - Orbit

View from above orbital plane
View from above orbital plane
View from above satellite
View from above satellite

Ground track
Ground track

The orbit data is extracted from the following two-line orbital elements,

1 27534U 02046A   17147.41796385 +.00000045 +00000-0 +32374-4 0  9998
2 27534 082.9365 254.4203 0036819 161.8687 266.7043 13.72686466734742
Epoch (UTC): 27 May 2017 10:01:52
Eccentricity: 0.0036819
inclination: 82.9365°
perigee height: 963 km
apogee height: 1017 km
right ascension of ascending node: 254.4203°
argument of perigee: 161.8687°
revolutions per day: 13.72686466
mean anomaly at epoch: 266.7043°
orbit number at epoch: 73474

The dashed part of the orbit path shows where the satellite is in the earth's shadow,  

DLR